Time,TemperatureF,DewpointF,PressureIn,WindDirection,WindDirectionDegrees,WindSpeedMPH,WindSpeedGustMPH,Humidity,HourlyPrecipIn,Conditions,Clouds,dailyrainin,SoftwareType,DateUTC
2013-04-03 00:00:00,34.0,12.2,30.04,NW,310,0.0,0.0,40,12.28,,,54.48,meteohub,2013-04-03 04:00:00,
2013-04-03 00:01:00,34.0,12.7,30.04,NW,310,0.0,0.0,41,12.28,,,54.48,meteohub,2013-04-03 04:01:00,
2013-04-03 00:02:00,34.0,12.7,30.04,NW,310,0.0,0.0,41,12.28,,,54.48,meteohub,2013-04-03 04:02:00,
2013-04-03 00:07:00,33.8,12.6,30.04,NW,310,0.0,0.0,41,12.64,,,56.08,meteohub,2013-04-03 04:07:00,
2013-04-03 00:12:00,33.6,12.4,30.04,NW,310,0.0,0.0,41,13.24,,,56.80,meteohub,2013-04-03 04:12:00,
2013-04-03 00:17:00,33.4,12.2,30.04,NW,310,0.0,0.0,41,13.64,,,58.16,meteohub,2013-04-03 04:17:00,
2013-04-03 00:22:00,33.4,12.7,30.04,NW,310,0.0,0.0,42,13.20,,,58.92,meteohub,2013-04-03 04:22:00,
2013-04-03 00:28:00,33.3,12.6,30.04,NW,310,0.0,0.0,42,13.48,,,60.40,meteohub,2013-04-03 04:28:00,
2013-04-03 00:33:00,33.1,13.5,30.04,NW,310,0.0,0.0,44,13.84,,,61.88,meteohub,2013-04-03 04:33:00,
2013-04-03 00:38:00,32.7,13.6,30.04,NW,310,0.0,0.0,45,13.48,,,62.72,meteohub,2013-04-03 04:38:00,
2013-04-03 00:43:00,32.5,13.1,30.04,NW,310,0.0,0.0,44,13.72,,,64.20,meteohub,2013-04-03 04:43:00,
2013-04-03 00:48:00,32.7,13.3,30.04,NW,310,0.0,0.0,44,13.20,,,64.80,meteohub,2013-04-03 04:48:00,
2013-04-03 00:53:00,32.7,12.7,30.05,NW,310,0.0,0.0,43,13.84,,,66.40,meteohub,2013-04-03 04:53:00,
2013-04-03 00:58:00,32.7,13.6,30.05,NW,310,0.0,0.0,45,13.76,,,67.76,meteohub,2013-04-03 04:58:00,
2013-04-03 01:03:00,32.7,13.3,30.05,NW,310,0.0,0.0,44,13.44,,,68.52,meteohub,2013-04-03 05:03:00,
2013-04-03 01:08:00,32.7,12.7,30.05,NW,310,0.0,0.0,43,13.80,,,70.12,meteohub,2013-04-03 05:08:00,
2013-04-03 01:14:00,32.7,12.7,30.05,NW,310,0.0,0.0,43,13.32,,,70.72,meteohub,2013-04-03 05:14:00,
2013-04-03 01:19:00,32.5,12.6,30.05,NW,310,0.0,0.0,43,13.56,,,72.20,meteohub,2013-04-03 05:19:00,
2013-04-03 01:24:00,32.5,12.6,30.05,NW,310,0.0,0.0,43,13.96,,,73.76,meteohub,2013-04-03 05:24:00,
2013-04-03 01:29:00,32.7,12.7,30.05,NW,310,0.0,0.0,43,13.40,,,74.40,meteohub,2013-04-03 05:29:00,
2013-04-03 01:34:00,32.5,13.1,30.05,NW,310,0.0,0.0,44,13.84,,,75.96,meteohub,2013-04-03 05:34:00,
2013-04-03 01:39:00,32.4,12.9,30.06,NW,310,0.0,0.0,44,13.28,,,76.60,meteohub,2013-04-03 05:39:00,
2013-04-03 01:44:00,32.4,12.4,30.06,NW,310,0.0,0.0,43,13.64,,,78.08,meteohub,2013-04-03 05:44:00,
2013-04-03 01:49:00,32.5,12.6,30.06,NW,310,0.0,0.0,43,13.88,,,79.52,meteohub,2013-04-03 05:49:00,
2013-04-03 01:54:00,32.5,12.6,30.06,NW,310,0.0,0.0,43,13.40,,,80.28,meteohub,2013-04-03 05:54:00,
2013-04-03 01:59:00,32.5,13.1,30.06,NW,310,0.0,0.0,44,13.80,,,81.84,meteohub,2013-04-03 05:59:00,
2013-04-03 02:05:00,32.5,13.1,30.06,NW,310,0.0,0.0,44,13.56,,,83.92,meteohub,2013-04-03 06:05:00,
2013-04-03 02:10:00,32.5,14.0,30.05,NW,310,0.0,0.0,46,13.24,,,84.80,meteohub,2013-04-03 06:10:00,
2013-04-03 02:15:00,32.4,13.5,30.05,NW,310,0.0,0.0,45,13.44,,,86.12,meteohub,2013-04-03 06:15:00,
2013-04-03 02:20:00,32.4,13.5,30.05,NW,310,0.0,0.0,45,13.72,,,87.60,meteohub,2013-04-03 06:20:00,
2013-04-03 02:25:00,32.4,13.5,30.05,NW,310,0.0,0.0,45,13.32,,,88.32,meteohub,2013-04-03 06:25:00,
2013-04-03 02:30:00,32.4,14.4,30.05,NW,310,0.0,0.0,47,13.52,,,89.76,meteohub,2013-04-03 06:30:00,
2013-04-03 02:35:00,32.4,14.4,30.05,NW,310,0.0,0.0,47,14.00,,,91.32,meteohub,2013-04-03 06:35:00,
2013-04-03 02:40:00,32.4,14.4,30.05,NW,310,0.0,0.0,47,13.48,,,92.04,meteohub,2013-04-03 06:40:00,
2013-04-03 02:45:00,32.4,14.9,30.05,NW,310,0.0,0.0,48,13.72,,,93.48,meteohub,2013-04-03 06:45:00,
2013-04-03 02:50:00,32.5,15.1,30.05,NW,310,0.0,0.0,48,13.32,,,94.20,meteohub,2013-04-03 06:50:00,
2013-04-03 02:55:00,32.5,15.4,30.05,NW,310,0.0,0.0,49,13.60,,,95.68,meteohub,2013-04-03 06:55:00,
2013-04-03 03:00:00,32.4,15.3,30.05,NW,310,0.0,0.0,49,13.84,,,97.04,meteohub,2013-04-03 07:00:00,
2013-04-03 03:06:00,32.2,15.6,30.05,NW,310,0.0,0.0,50,13.32,,,97.76,meteohub,2013-04-03 07:06:00,
2013-04-03 03:11:00,32.0,15.1,30.05,NW,310,0.0,0.0,49,13.72,,,99.24,meteohub,2013-04-03 07:11:00,
2013-04-03 03:16:00,31.6,15.1,30.05,NW,310,0.0,0.0,50,13.80,,,99.99,meteohub,2013-04-03 07:16:00,
2013-04-03 03:21:00,31.6,15.6,30.05,NW,310,0.0,0.0,51,13.56,,,99.99,meteohub,2013-04-03 07:21:00,
2013-04-03 03:26:00,31.6,15.6,30.05,NW,310,0.0,0.0,51,13.84,,,99.99,meteohub,2013-04-03 07:26:00,
2013-04-03 03:31:00,31.6,16.0,30.05,NW,310,0.0,0.0,52,13.24,,,99.99,meteohub,2013-04-03 07:31:00,
2013-04-03 03:36:00,31.5,15.8,30.05,NW,310,0.0,0.0,52,13.60,,,99.99,meteohub,2013-04-03 07:36:00,
2013-04-03 03:41:00,31.5,15.8,30.05,NW,310,0.0,0.0,52,13.96,,,99.99,meteohub,2013-04-03 07:41:00,
2013-04-03 03:46:00,31.5,16.3,30.05,NW,310,0.0,0.0,53,13.40,,,99.99,meteohub,2013-04-03 07:46:00,
2013-04-03 03:51:00,31.3,16.5,30.05,NW,310,0.0,0.0,54,13.60,,,99.99,meteohub,2013-04-03 07:51:00,
2013-04-03 03:57:00,31.1,16.3,30.05,NW,310,0.0,0.0,54,13.28,,,99.99,meteohub,2013-04-03 07:57:00,
2013-04-03 04:02:00,30.9,16.7,30.06,NW,310,0.0,0.0,55,13.52,,,99.99,meteohub,2013-04-03 08:02:00,
2013-04-03 04:07:00,30.7,16.9,30.06,NW,310,0.0,0.0,56,13.84,,,99.99,meteohub,2013-04-03 08:07:00,
2013-04-03 04:12:00,30.6,17.1,30.05,NW,310,0.0,0.0,57,13.40,,,99.99,meteohub,2013-04-03 08:12:00,
2013-04-03 04:17:00,30.6,17.1,30.05,NW,310,0.0,0.0,57,13.76,,,99.99,meteohub,2013-04-03 08:17:00,
2013-04-03 04:22:00,30.4,17.4,30.05,NW,310,0.0,0.0,58,13.44,,,99.99,meteohub,2013-04-03 08:22:00,
2013-04-03 04:27:00,30.0,17.1,30.06,NW,310,0.0,0.0,58,13.56,,,99.99,meteohub,2013-04-03 08:27:00,
2013-04-03 04:32:00,29.8,17.2,30.06,NW,310,0.0,0.0,59,13.80,,,99.99,meteohub,2013-04-03 08:32:00,
2013-04-03 04:37:00,29.7,16.7,30.06,NW,310,0.0,0.0,58,13.48,,,99.99,meteohub,2013-04-03 08:37:00,
2013-04-03 04:43:00,29.8,17.2,30.06,NW,310,0.0,0.0,59,13.72,,,99.99,meteohub,2013-04-03 08:43:00,
2013-04-03 04:48:00,29.7,16.7,30.06,NW,310,0.0,0.0,58,13.84,,,99.99,meteohub,2013-04-03 08:48:00,
2013-04-03 04:53:00,29.8,16.9,30.06,NW,310,0.0,0.0,58,13.56,,,99.99,meteohub,2013-04-03 08:53:00,
2013-04-03 04:58:00,29.7,17.4,30.06,NW,310,0.0,0.0,60,13.80,,,99.99,meteohub,2013-04-03 08:58:00,
2013-04-03 05:03:00,29.3,16.7,30.06,NW,310,0.0,0.0,59,13.40,,,99.99,meteohub,2013-04-03 09:03:00,
2013-04-03 05:08:00,29.1,17.4,30.06,NW,310,0.0,0.0,61,13.56,,,99.99,meteohub,2013-04-03 09:08:00,
2013-04-03 05:13:00,28.9,17.2,30.06,NW,310,0.0,0.0,61,13.92,,,99.99,meteohub,2013-04-03 09:13:00,
2013-04-03 05:18:00,28.8,17.1,30.06,NW,310,0.0,0.0,61,13.52,,,99.99,meteohub,2013-04-03 09:18:00,
2013-04-03 05:23:00,28.8,17.1,30.07,NW,310,0.0,0.0,61,13.80,,,99.99,meteohub,2013-04-03 09:23:00,
2013-04-03 05:28:00,28.6,17.2,30.07,NW,310,0.0,0.0,62,13.40,,,99.99,meteohub,2013-04-03 09:28:00,
2013-04-03 05:33:00,28.2,17.2,30.07,NW,310,0.0,0.0,63,13.52,,,99.99,meteohub,2013-04-03 09:33:00,
2013-04-03 05:38:00,28.2,16.9,30.07,NW,310,0.0,0.0,62,13.88,,,99.99,meteohub,2013-04-03 09:38:00,
2013-04-03 05:44:00,28.0,17.1,30.07,NW,310,0.0,0.0,63,13.28,,,99.99,meteohub,2013-04-03 09:44:00,
2013-04-03 05:49:00,27.9,16.9,30.07,NW,310,0.0,0.0,63,13.60,,,99.99,meteohub,2013-04-03 09:49:00,
2013-04-03 05:54:00,27.9,17.2,30.07,NW,310,0.0,0.0,64,13.84,,,99.99,meteohub,2013-04-03 09:54:00,
2013-04-03 05:59:00,28.0,17.1,30.08,NW,310,0.0,0.0,63,13.40,,,99.99,meteohub,2013-04-03 09:59:00,
2013-04-03 06:04:00,28.0,17.4,30.08,NW,310,0.0,0.0,64,13.72,,,99.99,meteohub,2013-04-03 10:04:00,
2013-04-03 06:09:00,28.0,17.1,30.08,NW,310,0.0,0.0,63,13.32,,,99.99,meteohub,2013-04-03 10:09:00,
2013-04-03 06:14:00,28.0,17.4,30.08,NW,310,0.0,0.0,64,13.56,,,99.99,meteohub,2013-04-03 10:14:00,
2013-04-03 06:19:00,27.9,16.9,30.09,NW,310,0.0,0.0,63,13.20,,,99.99,meteohub,2013-04-03 10:19:00,
2013-04-03 06:24:00,27.9,17.2,30.09,NW,310,0.0,0.0,64,13.56,,,99.99,meteohub,2013-04-03 10:24:00,
2013-04-03 06:29:00,27.9,17.2,30.09,NW,310,0.0,0.0,64,13.92,,,99.99,meteohub,2013-04-03 10:29:00,
2013-04-03 06:35:00,27.9,16.9,30.09,North,-999,-999.0,0.0,63,12.68,,,99.99,meteohub,2013-04-03 10:35:00,
2013-04-03 06:40:00,27.7,17.1,30.09,NW,310,0.0,0.0,64,11.88,,,99.99,meteohub,2013-04-03 10:40:00,
2013-04-03 06:45:00,27.9,17.2,30.09,NW,310,0.0,0.0,64,12.20,,,99.99,meteohub,2013-04-03 10:45:00,
2013-04-03 06:50:00,27.9,17.2,30.09,NW,310,0.0,0.0,64,12.48,,,99.99,meteohub,2013-04-03 10:50:00,
2013-04-03 06:55:00,27.9,17.2,30.10,NW,310,0.0,0.0,64,12.16,,,99.99,meteohub,2013-04-03 10:55:00,
2013-04-03 07:00:00,27.9,16.9,30.10,NW,310,0.0,0.0,63,12.24,,,99.99,meteohub,2013-04-03 11:00:00,
2013-04-03 07:05:00,27.9,17.2,30.10,NW,310,0.0,0.0,64,11.36,,,99.99,meteohub,2013-04-03 11:05:00,
2013-04-03 07:10:00,28.0,17.1,30.10,NW,310,0.0,0.0,63,11.20,,,99.99,meteohub,2013-04-03 11:10:00,
2013-04-03 07:15:00,28.6,17.6,30.11,NW,310,0.0,0.0,63,11.64,,,99.99,meteohub,2013-04-03 11:15:00,
2013-04-03 07:20:00,29.1,17.8,30.11,NW,310,0.0,0.0,62,11.04,,,99.99,meteohub,2013-04-03 11:20:00,
2013-04-03 07:26:00,29.8,18.5,30.11,NW,310,0.0,0.0,62,11.60,,,99.99,meteohub,2013-04-03 11:26:00,
2013-04-03 07:31:00,30.2,18.3,30.11,NW,310,0.0,0.0,61,13.08,,,99.99,meteohub,2013-04-03 11:31:00,
2013-04-03 07:36:00,30.6,18.3,30.11,NW,310,0.0,0.0,60,12.60,,,99.99,meteohub,2013-04-03 11:36:00,
2013-04-03 07:42:00,30.9,18.3,30.11,NW,310,0.0,0.0,59,12.84,,,99.99,meteohub,2013-04-03 11:42:00,
2013-04-03 07:47:00,31.5,18.0,30.11,NW,310,0.0,0.0,57,12.24,,,99.99,meteohub,2013-04-03 11:47:00,
2013-04-03 07:52:00,32.0,18.1,30.11,NW,310,0.0,0.0,56,12.64,,,99.99,meteohub,2013-04-03 11:52:00,
2013-04-03 07:57:00,32.4,17.6,30.12,NW,310,0.0,0.0,54,12.96,,,99.99,meteohub,2013-04-03 11:57:00,
2013-04-03 08:02:00,32.7,18.0,30.11,NW,310,0.0,0.0,54,12.84,,,99.99,meteohub,2013-04-03 12:02:00,
2013-04-03 08:07:00,33.3,17.6,30.11,NW,310,0.0,0.0,52,13.72,,,99.99,meteohub,2013-04-03 12:07:00,
2013-04-03 08:12:00,33.6,17.4,30.12,NW,310,0.0,0.0,51,13.24,,,99.99,meteohub,2013-04-03 12:12:00,
2013-04-03 08:17:00,34.0,18.1,30.12,NW,310,0.0,0.0,52,13.64,,,99.99,meteohub,2013-04-03 12:17:00,
2013-04-03 08:22:00,34.2,18.0,30.12,NW,310,0.0,0.0,51,13.32,,,99.99,meteohub,2013-04-03 12:22:00,
2013-04-03 08:27:00,34.3,17.2,30.11,NW,310,0.0,0.0,49,13.48,,,99.99,meteohub,2013-04-03 12:27:00,
2013-04-03 08:33:00,34.3,17.2,30.11,NW,310,0.0,0.0,49,13.72,,,99.99,meteohub,2013-04-03 12:33:00,
2013-04-03 08:38:00,34.5,17.2,30.11,NW,310,0.0,0.0,49,13.36,,,99.99,meteohub,2013-04-03 12:38:00,
2013-04-03 08:43:00,34.9,17.6,30.11,NW,310,0.0,0.0,49,13.64,,,99.99,meteohub,2013-04-03 12:43:00,
2013-04-03 08:48:00,35.1,18.3,30.11,NW,310,0.0,0.0,50,13.92,,,99.99,meteohub,2013-04-03 12:48:00,
2013-04-03 08:53:00,35.4,17.2,30.11,NW,310,0.0,0.0,47,13.48,,,99.99,meteohub,2013-04-03 12:53:00,
2013-04-03 08:58:00,35.8,18.5,30.11,NW,310,0.0,0.0,49,13.84,,,99.99,meteohub,2013-04-03 12:58:00,
2013-04-03 09:03:00,36.0,17.2,30.10,NW,310,0.0,0.0,46,13.40,,,99.99,meteohub,2013-04-03 13:03:00,
2013-04-03 09:08:00,36.3,16.5,30.11,NW,310,0.0,0.0,44,13.60,,,99.99,meteohub,2013-04-03 13:08:00,
2013-04-03 09:14:00,36.5,17.6,30.11,NW,310,0.0,0.0,46,13.88,,,99.99,meteohub,2013-04-03 13:14:00,
2013-04-03 09:19:00,36.3,16.5,30.11,NW,310,0.0,0.0,44,13.48,,,99.99,meteohub,2013-04-03 13:19:00,
2013-04-03 09:24:00,36.0,16.7,30.11,NW,310,0.0,0.0,45,13.56,,,99.99,meteohub,2013-04-03 13:24:00,
2013-04-03 09:29:00,36.0,16.7,30.11,NW,310,0.0,0.0,45,13.92,,,99.99,meteohub,2013-04-03 13:29:00,
2013-04-03 09:34:00,36.5,16.7,30.11,NW,310,0.0,0.0,44,13.52,,,99.99,meteohub,2013-04-03 13:34:00,
2013-04-03 09:39:00,36.5,18.1,30.11,NW,310,0.0,0.0,47,13.92,,,99.99,meteohub,2013-04-03 13:39:00,
2013-04-03 09:44:00,37.4,18.5,30.11,NW,310,0.0,0.0,46,13.40,,,99.99,meteohub,2013-04-03 13:44:00,
2013-04-03 09:49:00,37.6,16.5,30.11,NW,310,0.0,0.0,42,13.80,,,99.99,meteohub,2013-04-03 13:49:00,
2013-04-03 09:54:00,37.6,18.7,30.11,NW,310,0.0,0.0,46,13.92,,,99.99,meteohub,2013-04-03 13:54:00,
2013-04-03 10:00:00,37.0,16.7,30.11,NW,310,0.0,0.0,43,13.36,,,99.99,meteohub,2013-04-03 14:00:00,
2013-04-03 10:05:00,37.6,17.6,30.10,NW,310,0.0,0.0,44,13.52,,,99.99,meteohub,2013-04-03 14:05:00,
2013-04-03 10:10:00,38.1,17.6,30.10,NW,310,0.0,0.0,43,13.58,,,99.99,meteohub,2013-04-03 14:10:00,
2013-04-03 10:15:00,37.8,16.7,30.11,NW,310,0.0,0.0,42,13.82,,,99.99,meteohub,2013-04-03 14:15:00,
2013-04-03 10:20:00,37.4,16.3,30.10,NW,310,0.0,0.0,42,13.26,,,99.99,meteohub,2013-04-03 14:20:00,
2013-04-03 10:25:00,37.6,17.6,30.10,NW,310,0.0,0.0,44,13.54,,,99.99,meteohub,2013-04-03 14:25:00,
2013-04-03 10:30:00,38.5,19.9,30.10,NW,310,0.0,0.0,47,13.98,,,99.99,meteohub,2013-04-03 14:30:00,
2013-04-03 10:35:00,39.2,18.0,30.10,NW,310,0.0,0.0,42,12.87,,,99.99,meteohub,2013-04-03 14:35:00,
2013-04-03 10:40:00,39.0,18.5,30.10,NW,310,0.0,0.0,43,12.39,,,99.99,meteohub,2013-04-03 14:40:00,
2013-04-03 10:45:00,38.7,18.7,30.10,NW,310,0.0,0.0,44,11.99,,,99.99,meteohub,2013-04-03 14:45:00,
2013-04-03 10:50:00,38.7,18.1,30.10,NW,310,0.0,0.0,43,12.39,,,99.99,meteohub,2013-04-03 14:50:00,
2013-04-03 10:56:00,39.4,19.8,30.09,NW,310,0.0,0.0,45,12.47,,,99.99,meteohub,2013-04-03 14:56:00,
2013-04-03 11:01:00,39.9,18.7,30.09,NW,310,0.0,0.0,42,12.03,,,99.99,meteohub,2013-04-03 15:01:00,
2013-04-03 11:06:00,39.7,18.0,30.10,NW,310,0.0,0.0,41,12.12,,,99.99,meteohub,2013-04-03 15:06:00,
2013-04-03 11:11:00,39.6,18.3,30.10,NW,310,0.0,0.0,42,11.74,,,99.99,meteohub,2013-04-03 15:11:00,
2013-04-03 11:16:00,39.4,17.6,30.10,NW,310,0.0,0.0,41,11.74,,,99.99,meteohub,2013-04-03 15:16:00,
2013-04-03 11:21:00,39.6,18.3,30.10,NW,310,0.0,0.0,42,12.10,,,99.99,meteohub,2013-04-03 15:21:00,
2013-04-03 11:26:00,39.6,17.2,30.10,NW,310,0.0,0.0,40,11.62,,,99.99,meteohub,2013-04-03 15:26:00,
2013-04-03 11:31:00,39.4,18.7,30.10,NW,310,0.0,0.0,43,11.77,,,99.99,meteohub,2013-04-03 15:31:00,
2013-04-03 11:36:00,39.9,18.7,30.09,NW,310,0.0,0.0,42,13.28,,,99.99,meteohub,2013-04-03 15:36:00,
2013-04-03 11:41:00,41.0,18.0,30.09,NW,310,0.0,0.0,39,13.01,,,99.99,meteohub,2013-04-03 15:41:00,
2013-04-03 11:46:00,41.4,18.9,30.09,NW,310,0.0,0.0,40,13.17,,,99.99,meteohub,2013-04-03 15:46:00,
2013-04-03 11:52:00,41.0,19.0,30.09,NW,310,0.0,0.0,41,12.77,,,99.99,meteohub,2013-04-03 15:52:00,
2013-04-03 11:57:00,41.0,17.4,30.09,NW,310,0.0,0.0,38,11.88,,,99.99,meteohub,2013-04-03 15:57:00,
2013-04-03 12:02:00,41.2,18.1,30.09,NW,310,0.0,0.0,39,11.11,,,99.99,meteohub,2013-04-03 16:02:00,
2013-04-03 12:07:00,41.2,16.9,30.09,NW,310,0.0,0.0,37,11.06,,,99.99,meteohub,2013-04-03 16:07:00,
2013-04-03 12:12:00,40.6,17.1,30.08,NW,310,0.0,0.0,38,10.11,,,99.99,meteohub,2013-04-03 16:12:00,
2013-04-03 12:17:00,41.0,16.7,30.08,NW,310,0.0,0.0,37,9.91,,,99.99,meteohub,2013-04-03 16:17:00,
2013-04-03 12:23:00,42.1,17.6,30.09,NW,310,0.0,0.0,37,8.71,,,99.99,meteohub,2013-04-03 16:23:00,
2013-04-03 12:28:00,41.9,16.2,30.08,NW,310,0.0,0.0,35,7.59,,,99.99,meteohub,2013-04-03 16:28:00,
2013-04-03 12:33:00,41.5,15.3,30.09,NW,310,0.0,0.0,34,6.59,,,99.99,meteohub,2013-04-03 16:33:00,
2013-04-03 12:38:00,42.3,19.0,30.09,NW,310,0.0,0.0,39,5.81,,,99.99,meteohub,2013-04-03 16:38:00,
2013-04-03 12:44:00,41.7,15.4,30.08,NW,310,0.0,0.0,34,6.01,,,99.99,meteohub,2013-04-03 16:44:00,
2013-04-03 12:49:00,41.7,19.2,30.08,NW,310,0.0,0.0,40,5.61,,,99.99,meteohub,2013-04-03 16:49:00,
2013-04-03 12:54:00,42.3,17.2,30.08,NW,310,0.0,0.0,36,5.73,,,99.99,meteohub,2013-04-03 16:54:00,
2013-04-03 12:59:00,41.7,17.4,30.08,NW,310,0.0,0.0,37,7.10,,,99.99,meteohub,2013-04-03 16:59:00,
2013-04-03 13:04:00,42.3,19.6,30.08,NW,310,0.0,0.0,40,7.23,,,99.99,meteohub,2013-04-03 17:04:00,
2013-04-03 13:09:00,43.3,18.9,30.08,NW,310,0.0,0.0,37,7.86,,,99.99,meteohub,2013-04-03 17:09:00,
2013-04-03 13:14:00,43.5,16.3,30.08,NW,310,0.0,0.0,33,9.00,,,99.99,meteohub,2013-04-03 17:14:00,
2013-04-03 13:20:00,43.2,17.4,30.08,NW,310,0.0,0.0,35,8.45,,,99.99,meteohub,2013-04-03 17:20:00,
2013-04-03 13:25:00,43.5,16.3,30.08,NW,310,0.0,0.0,33,9.29,,,99.99,meteohub,2013-04-03 17:25:00,
2013-04-03 13:30:00,43.5,16.3,30.08,NW,310,0.0,0.0,33,10.49,,,99.99,meteohub,2013-04-03 17:30:00,
2013-04-03 13:35:00,43.3,15.4,30.08,NW,310,0.0,0.0,32,10.90,,,99.99,meteohub,2013-04-03 17:35:00,
2013-04-03 13:40:00,43.3,15.4,30.08,NW,310,0.0,0.0,32,9.78,,,99.99,meteohub,2013-04-03 17:40:00,
2013-04-03 13:45:00,43.0,14.4,30.08,NW,310,0.0,0.0,31,10.22,,,99.99,meteohub,2013-04-03 17:45:00,
2013-04-03 13:50:00,43.5,16.3,30.08,NW,310,0.0,0.0,33,9.62,,,99.99,meteohub,2013-04-03 17:50:00,
2013-04-03 13:55:00,44.1,17.4,30.08,NW,310,0.0,0.0,34,9.90,,,99.99,meteohub,2013-04-03 17:55:00,
2013-04-03 14:00:00,44.2,16.9,30.07,NW,310,0.0,0.0,33,9.54,,,99.99,meteohub,2013-04-03 18:00:00,
2013-04-03 14:05:00,44.6,15.8,30.07,NW,310,0.0,0.0,31,9.18,,,99.99,meteohub,2013-04-03 18:05:00,
2013-04-03 14:11:00,44.4,14.9,30.07,NW,310,0.0,0.0,30,9.06,,,99.99,meteohub,2013-04-03 18:11:00,
2013-04-03 14:16:00,44.2,19.6,30.07,NW,310,0.0,0.0,37,8.89,,,99.99,meteohub,2013-04-03 18:16:00,
2013-04-03 14:21:00,44.6,15.8,30.06,NW,310,0.0,0.0,31,9.76,,,99.99,meteohub,2013-04-03 18:21:00,
2013-04-03 14:26:00,45.0,16.9,30.06,NW,310,0.0,0.0,32,9.93,,,99.99,meteohub,2013-04-03 18:26:00,
2013-04-03 14:32:00,44.4,14.2,30.06,NW,310,0.0,0.0,29,9.42,,,99.99,meteohub,2013-04-03 18:32:00,
2013-04-03 14:37:00,44.8,16.0,30.05,NW,310,0.0,0.0,31,9.83,,,99.99,meteohub,2013-04-03 18:37:00,
2013-04-03 14:41:00,44.8,16.0,30.06,NW,310,0.0,0.0,31,10.92,,,99.99,meteohub,2013-04-03 18:41:00,
2013-04-03 14:47:00,45.0,16.2,30.06,NW,310,0.0,0.0,31,10.84,,,99.99,meteohub,2013-04-03 18:47:00,
2013-04-03 14:52:00,45.7,16.7,30.05,NW,310,0.0,0.0,31,10.97,,,99.99,meteohub,2013-04-03 18:52:00,
2013-04-03 14:57:00,46.2,15.6,30.05,NW,310,0.0,0.0,29,10.61,,,99.99,meteohub,2013-04-03 18:57:00,
2013-04-03 15:02:00,46.2,14.9,30.05,NW,310,0.0,0.0,28,10.12,,,99.99,meteohub,2013-04-03 19:02:00,
2013-04-03 15:07:00,46.2,18.7,30.05,NW,310,0.0,0.0,33,9.09,,,99.99,meteohub,2013-04-03 19:07:00,
2013-04-03 15:12:00,46.0,15.6,30.05,NW,310,0.0,0.0,29,8.86,,,99.99,meteohub,2013-04-03 19:12:00,
2013-04-03 15:17:00,45.9,17.6,30.05,NW,310,0.0,0.0,32,8.15,,,99.99,meteohub,2013-04-03 19:17:00,
2013-04-03 15:22:00,46.6,16.9,30.05,NW,310,0.0,0.0,30,7.79,,,99.99,meteohub,2013-04-03 19:22:00,
2013-04-03 15:27:00,45.9,14.5,30.05,NW,310,0.0,0.0,28,8.33,,,99.99,meteohub,2013-04-03 19:27:00,
2013-04-03 15:32:00,45.7,14.4,30.05,NW,310,0.0,0.0,28,8.47,,,99.99,meteohub,2013-04-03 19:32:00,
2013-04-03 15:38:00,45.7,16.0,30.05,NW,310,0.0,0.0,30,8.14,,,99.99,meteohub,2013-04-03 19:38:00,
2013-04-03 15:43:00,46.6,16.0,30.05,NW,310,0.0,0.0,29,8.62,,,99.99,meteohub,2013-04-03 19:43:00,
2013-04-03 15:48:00,45.7,15.3,30.05,NW,310,0.0,0.0,29,9.05,,,99.99,meteohub,2013-04-03 19:48:00,
2013-04-03 15:53:00,45.7,15.3,30.05,NW,310,0.0,0.0,29,8.69,,,99.99,meteohub,2013-04-03 19:53:00,
2013-04-03 15:58:00,45.7,13.6,30.05,NW,310,0.0,0.0,27,9.50,,,99.99,meteohub,2013-04-03 19:58:00,
2013-04-03 16:03:00,45.7,13.6,30.05,NW,310,0.0,0.0,27,10.22,,,99.99,meteohub,2013-04-03 20:03:00,
2013-04-03 16:09:00,45.9,16.9,30.05,NW,310,0.0,0.0,31,11.58,,,99.99,meteohub,2013-04-03 20:09:00,
2013-04-03 16:14:00,46.2,16.5,30.05,NW,310,0.0,0.0,30,13.10,,,99.99,meteohub,2013-04-03 20:14:00,
2013-04-03 16:19:00,46.6,17.6,30.06,NW,310,0.0,0.0,31,13.34,,,99.99,meteohub,2013-04-03 20:19:00,
2013-04-03 16:24:00,46.9,13.8,30.05,NW,310,0.0,0.0,26,13.58,,,99.99,meteohub,2013-04-03 20:24:00,
2013-04-03 16:29:00,46.6,15.3,30.05,NW,310,0.0,0.0,28,13.96,,,99.99,meteohub,2013-04-03 20:29:00,
2013-04-03 16:35:00,46.4,15.1,30.05,NW,310,0.0,0.0,28,13.36,,,99.99,meteohub,2013-04-03 20:35:00,
2013-04-03 16:40:00,46.0,15.6,30.05,NW,310,0.0,0.0,29,12.48,,,99.99,meteohub,2013-04-03 20:40:00,
2013-04-03 16:45:00,46.0,14.7,30.05,NW,310,0.0,0.0,28,13.68,,,99.99,meteohub,2013-04-03 20:45:00,
2013-04-03 16:50:00,45.7,14.4,30.05,NW,310,0.0,0.0,28,13.84,,,99.99,meteohub,2013-04-03 20:50:00,
2013-04-03 16:55:00,45.5,15.1,30.06,NW,310,0.0,0.0,29,13.36,,,99.99,meteohub,2013-04-03 20:55:00,
2013-04-03 17:00:00,46.2,14.9,30.06,NW,310,0.0,0.0,28,13.60,,,99.99,meteohub,2013-04-03 21:00:00,
2013-04-03 17:05:00,45.3,13.3,30.06,NW,310,0.0,0.0,27,13.20,,,99.99,meteohub,2013-04-03 21:05:00,
2013-04-03 17:11:00,44.8,14.5,30.06,NW,310,0.0,0.0,29,13.52,,,99.99,meteohub,2013-04-03 21:11:00,
2013-04-03 17:16:00,44.8,13.6,30.06,NW,310,0.0,0.0,28,13.80,,,99.99,meteohub,2013-04-03 21:16:00,
2013-04-03 17:21:00,45.0,12.9,30.06,NW,310,0.0,0.0,27,13.40,,,99.99,meteohub,2013-04-03 21:21:00,
2013-04-03 17:26:00,45.1,13.1,30.07,NW,310,0.0,0.0,27,13.64,,,99.99,meteohub,2013-04-03 21:26:00,
2013-04-03 17:31:00,45.0,12.2,30.07,NW,310,0.0,0.0,26,13.76,,,99.99,meteohub,2013-04-03 21:31:00,
2013-04-03 17:36:00,44.8,12.7,30.07,NW,310,0.0,0.0,27,13.40,,,99.99,meteohub,2013-04-03 21:36:00,
2013-04-03 17:41:00,44.6,11.8,30.07,NW,310,0.0,0.0,26,13.60,,,99.99,meteohub,2013-04-03 21:41:00,
2013-04-03 17:46:00,44.4,12.6,30.08,NW,310,0.0,0.0,27,13.24,,,99.99,meteohub,2013-04-03 21:46:00,
2013-04-03 17:51:00,44.8,12.7,30.08,NW,310,0.0,0.0,27,13.60,,,99.99,meteohub,2013-04-03 21:51:00,
2013-04-03 17:56:00,44.2,12.4,30.08,NW,310,0.0,0.0,27,13.76,,,99.99,meteohub,2013-04-03 21:56:00,
2013-04-03 18:02:00,43.9,12.0,30.08,NW,310,0.0,0.0,27,13.40,,,99.99,meteohub,2013-04-03 22:02:00,
2013-04-03 18:07:00,43.3,12.4,30.09,NW,310,0.0,0.0,28,13.64,,,99.99,meteohub,2013-04-03 22:07:00,
2013-04-03 18:12:00,43.0,12.0,30.09,NW,310,0.0,0.0,28,13.12,,,99.99,meteohub,2013-04-03 22:12:00,
2013-04-03 18:17:00,42.6,13.3,30.09,NW,310,0.0,0.0,30,13.64,,,99.99,meteohub,2013-04-03 22:17:00,
2013-04-03 18:22:00,42.6,12.6,30.09,NW,310,0.0,0.0,29,13.88,,,99.99,meteohub,2013-04-03 22:22:00,
2013-04-03 18:27:00,42.4,13.1,30.09,NW,310,0.0,0.0,30,13.44,,,99.99,meteohub,2013-04-03 22:27:00,
2013-04-03 18:32:00,42.3,13.1,30.10,NW,310,0.0,0.0,30,13.56,,,99.99,meteohub,2013-04-03 22:32:00,
2013-04-03 18:37:00,42.1,12.9,30.11,NW,310,0.0,0.0,30,13.92,,,99.99,meteohub,2013-04-03 22:37:00,
2013-04-03 18:42:00,41.7,13.3,30.11,NW,310,0.0,0.0,31,13.52,,,99.99,meteohub,2013-04-03 22:42:00,
2013-04-03 18:47:00,41.5,13.1,30.12,NW,310,0.0,0.0,31,13.76,,,99.99,meteohub,2013-04-03 22:47:00,
2013-04-03 18:52:00,41.4,12.2,30.12,NW,310,0.0,0.0,30,13.40,,,99.99,meteohub,2013-04-03 22:52:00,
2013-04-03 18:57:00,41.4,12.9,30.12,NW,310,0.0,0.0,31,13.60,,,99.99,meteohub,2013-04-03 22:57:00,
2013-04-03 19:02:00,41.2,12.7,30.12,NW,310,0.0,0.0,31,13.76,,,99.99,meteohub,2013-04-03 23:02:00,
2013-04-03 19:07:00,40.8,13.3,30.12,NW,310,0.0,0.0,32,13.36,,,99.99,meteohub,2013-04-03 23:07:00,
2013-04-03 19:12:00,40.6,13.8,30.12,NW,310,0.0,0.0,33,13.76,,,99.99,meteohub,2013-04-03 23:12:00,
2013-04-03 19:17:00,40.5,13.6,30.13,NW,310,0.0,0.0,33,13.36,,,99.99,meteohub,2013-04-03 23:17:00,
2013-04-03 19:23:00,40.5,13.6,30.13,NW,310,0.0,0.0,33,13.52,,,99.99,meteohub,2013-04-03 23:23:00,
2013-04-03 19:28:00,40.3,14.2,30.13,NW,310,0.0,0.0,34,13.76,,,99.99,meteohub,2013-04-03 23:28:00,
2013-04-03 19:33:00,39.9,14.5,30.14,NW,310,0.0,0.0,35,12.88,,,99.99,meteohub,2013-04-03 23:33:00,
2013-04-03 19:38:00,39.6,14.2,30.14,NW,310,0.0,0.0,35,12.52,,,99.99,meteohub,2013-04-03 23:38:00,
2013-04-03 19:43:00,39.4,14.0,30.15,NW,310,0.0,0.0,35,12.80,,,99.99,meteohub,2013-04-03 23:43:00,
2013-04-03 19:48:00,39.4,14.0,30.15,NW,310,0.0,0.0,35,12.44,,,99.99,meteohub,2013-04-03 23:48:00,
2013-04-03 19:53:00,39.0,14.9,30.15,NW,310,0.0,0.0,37,12.64,,,99.99,meteohub,2013-04-03 23:53:00,
2013-04-03 19:58:00,39.0,13.6,30.16,NW,310,0.0,0.0,35,12.12,,,99.99,meteohub,2013-04-03 23:58:00,
2013-04-03 20:04:00,38.8,13.5,30.16,NW,310,0.0,0.0,35,12.52,,,99.99,meteohub,2013-04-04 00:04:00,
2013-04-03 20:09:00,38.7,14.0,30.17,NW,310,0.0,0.0,36,11.96,,,0.44,meteohub,2013-04-04 00:09:00,
2013-04-03 20:14:00,38.7,14.0,30.17,NW,310,0.0,0.0,36,12.40,,,1.96,meteohub,2013-04-04 00:14:00,
2013-04-03 20:20:00,38.5,13.3,30.17,NW,310,0.0,0.0,35,12.64,,,3.44,meteohub,2013-04-04 00:20:00,
2013-04-03 20:25:00,38.5,13.3,30.18,NW,310,0.0,0.0,35,12.52,,,5.64,meteohub,2013-04-04 00:25:00,
2013-04-03 20:30:00,38.3,13.1,30.18,NW,310,0.0,0.0,35,13.24,,,6.36,meteohub,2013-04-04 00:30:00,
2013-04-03 20:35:00,38.1,13.5,30.19,NW,310,0.0,0.0,36,13.48,,,7.80,meteohub,2013-04-04 00:35:00,
2013-04-03 20:40:00,37.9,12.7,30.19,NW,310,0.0,0.0,35,13.68,,,9.24,meteohub,2013-04-04 00:40:00,
2013-04-03 20:45:00,37.9,13.3,30.20,NW,310,0.0,0.0,36,13.44,,,10.08,meteohub,2013-04-04 00:45:00,
2013-04-03 20:50:00,37.9,13.3,30.20,NW,310,0.0,0.0,36,13.60,,,11.40,meteohub,2013-04-04 00:50:00,
2013-04-03 20:55:00,37.8,13.8,30.20,NW,310,0.0,0.0,37,13.88,,,12.88,meteohub,2013-04-04 00:55:00,
2013-04-03 21:00:00,37.6,13.1,30.21,NW,310,0.0,0.0,36,13.40,,,13.56,meteohub,2013-04-04 01:00:00,
2013-04-03 21:05:00,37.6,13.1,30.20,NW,310,0.0,0.0,36,13.76,,,15.12,meteohub,2013-04-04 01:05:00,
2013-04-03 21:11:00,37.4,12.9,30.21,NW,310,0.0,0.0,36,13.28,,,15.84,meteohub,2013-04-04 01:11:00,
2013-04-03 21:16:00,37.2,13.3,30.21,NW,310,0.0,0.0,37,13.60,,,17.28,meteohub,2013-04-04 01:16:00,
2013-04-03 21:21:00,37.2,13.3,30.21,NW,310,0.0,0.0,37,13.84,,,18.72,meteohub,2013-04-04 01:21:00,
2013-04-03 21:26:00,37.0,13.1,30.22,NW,310,0.0,0.0,37,13.32,,,19.32,meteohub,2013-04-04 01:26:00,
2013-04-03 21:31:00,36.7,12.9,30.22,NW,310,0.0,0.0,37,13.60,,,20.80,meteohub,2013-04-04 01:31:00,
2013-04-03 21:37:00,36.7,12.9,30.22,NW,310,0.0,0.0,37,13.96,,,22.36,meteohub,2013-04-04 01:37:00,
2013-04-03 21:42:00,36.7,13.5,30.22,NW,310,0.0,0.0,38,13.48,,,23.08,meteohub,2013-04-04 01:42:00,
2013-04-03 21:47:00,36.3,13.1,30.22,NW,310,0.0,0.0,38,13.88,,,24.56,meteohub,2013-04-04 01:47:00,
2013-04-03 21:52:00,36.1,14.2,30.22,NW,310,0.0,0.0,40,13.36,,,25.28,meteohub,2013-04-04 01:52:00,
2013-04-03 21:57:00,36.1,13.6,30.22,NW,310,0.0,0.0,39,13.52,,,26.68,meteohub,2013-04-04 01:57:00,
2013-04-03 22:02:00,36.0,14.0,30.23,NW,310,0.0,0.0,40,13.76,,,28.04,meteohub,2013-04-04 02:02:00,
2013-04-03 22:07:00,35.8,14.4,30.23,NW,310,0.0,0.0,41,13.28,,,28.76,meteohub,2013-04-04 02:07:00,
2013-04-03 22:12:00,35.4,14.5,30.22,NW,310,0.0,0.0,42,13.72,,,30.28,meteohub,2013-04-04 02:12:00,
2013-04-03 22:17:00,35.4,15.1,30.23,NW,310,0.0,0.0,43,13.84,,,31.60,meteohub,2013-04-04 02:17:00,
2013-04-03 22:22:00,35.2,14.9,30.23,NW,310,0.0,0.0,43,13.40,,,32.36,meteohub,2013-04-04 02:22:00,
2013-04-03 22:27:00,35.1,15.3,30.24,NW,310,0.0,0.0,44,13.72,,,33.80,meteohub,2013-04-04 02:27:00,
2013-04-03 22:32:00,34.9,15.3,30.24,NW,310,0.0,0.0,44,13.40,,,34.68,meteohub,2013-04-04 02:32:00,
2013-04-03 22:37:00,35.1,15.3,30.25,NW,310,0.0,0.0,44,13.56,,,36.04,meteohub,2013-04-04 02:37:00,
2013-04-03 22:43:00,34.9,15.6,30.24,NW,310,0.0,0.0,45,13.92,,,37.48,meteohub,2013-04-04 02:43:00,
2013-04-03 22:48:00,34.9,15.6,30.25,NW,310,0.0,0.0,45,13.44,,,38.24,meteohub,2013-04-04 02:48:00,
2013-04-03 22:53:00,34.9,15.6,30.25,NW,310,0.0,0.0,45,13.80,,,39.76,meteohub,2013-04-04 02:53:00,
2013-04-03 22:58:00,34.5,15.8,30.25,NW,310,0.0,0.0,46,13.24,,,40.40,meteohub,2013-04-04 02:58:00,
2013-04-03 23:03:00,34.3,15.6,30.25,NW,310,0.0,0.0,46,13.56,,,41.84,meteohub,2013-04-04 03:03:00,
2013-04-03 23:08:00,34.2,15.6,30.25,NW,310,0.0,0.0,46,13.76,,,43.24,meteohub,2013-04-04 03:08:00,
2013-04-03 23:13:00,34.2,15.6,30.25,NW,310,0.0,0.0,46,13.36,,,44.00,meteohub,2013-04-04 03:13:00,
2013-04-03 23:18:00,34.2,16.0,30.25,NW,310,0.0,0.0,47,13.60,,,45.48,meteohub,2013-04-04 03:18:00,
2013-04-03 23:23:00,34.0,15.8,30.25,NW,310,0.0,0.0,47,13.36,,,46.32,meteohub,2013-04-04 03:23:00,
2013-04-03 23:28:00,34.0,15.8,30.25,NW,310,0.0,0.0,47,13.56,,,47.76,meteohub,2013-04-04 03:28:00,
2013-04-03 23:34:00,34.0,15.8,30.25,NW,310,0.0,0.0,47,13.84,,,49.12,meteohub,2013-04-04 03:34:00,
2013-04-03 23:39:00,33.6,16.0,30.25,NW,310,0.0,0.0,48,13.20,,,49.72,meteohub,2013-04-04 03:39:00,
2013-04-03 23:44:00,33.4,15.8,30.26,NW,310,0.0,0.0,48,12.36,,,50.08,meteohub,2013-04-04 03:44:00,
2013-04-03 23:50:00,33.3,15.6,30.26,NW,310,0.0,0.0,48,12.60,,,51.48,meteohub,2013-04-04 03:50:00,
2013-04-03 23:55:00,33.3,16.2,30.26,NW,310,0.0,0.0,49,12.48,,,53.60,meteohub,2013-04-04 03:55:00,